This demonstration page uses our WeatherBlox Daily Observations layout. Learn more.

Left ArrowRight Arrow

38.80484, -77.04692

Hourly Observations for April 30, 2020

Temp ( °F °C ) Dew Point ( °F °C ) Humidity (%) Winds ( mph kmh ) Pressure ( in mb ) Visibility ( mi km ) Precip ( " mm )
12:52 am 00:52 Cloudy 68 20 58 14.4 70 70 SSE 16 26 29.91 1013 10 16 0.00 0.00
1:52 am 01:52 Cloudy with Light Rain 67 19.4 56 13.3 68 68 SSE 21 33 29.90 1013 10 16 0.00 0.00
2:52 am 02:52 Mostly Cloudy with Light Rain 65 18.3 56 13.3 73 73 SSE 15 24 29.88 1012 10 16 0.01 0.25
3:52 am 03:52 Cloudy 65 18.3 56 13.3 73 73 SSE 14 22 29.86 1011 10 16 0.00 0.00
4:52 am 04:52 Mostly Cloudy 65 18.3 57 13.9 76 76 SE 16 26 29.84 1010 10 16 0.00 0.00
5:52 am 05:52 Cloudy 65 18.3 57 13.9 76 76 SE 17 28 29.81 1009 10 16 0.00 0.00
6:52 am 06:52 Cloudy 66 18.9 56 13.3 70 70 SSE 23 37 29.80 1009 10 16 0.00 0.00
7:52 am 07:52 Cloudy 66 18.9 56 13.3 70 70 SSE 21 33 29.79 1009 10 16 0.00 0.00
8:52 am 08:52 Cloudy with Light Rain 66 18.9 57 13.9 73 73 SSE 22 35 29.79 1009 7 11 0.00 0.00
9:52 am 09:52 Cloudy with Light Rain 64 17.8 59 15 84 84 SSE 18 30 29.75 1008 5 8 0.05 1.27
10:52 am 10:52 Cloudy with Light Rain 64 17.8 59 15 84 84 SE 20 31 29.75 1008 5 8 0.04 1.02
11:07 am 11:07 Cloudy with Light Rain 64 17.8 60 15.6 87 87 S 16 26 29.77 1008 3 5 0.00 0.00
11:17 am 11:17 Cloudy with Rain 63 17.2 60 15.6 90 90 SSW 12 19 29.77 1008 2 3 0.03 0.76
11:52 am 11:52 Cloudy with Rain 62 16.7 61 16.1 96 96 S 10 17 29.76 1008 3 4 0.21 5.33
12:04 pm 12:04 Cloudy with Rain 62 16.7 61 16.1 96 96 SW 12 19 29.76 1008 2 3 0.05 1.27
12:17 pm 12:17 Cloudy with Light Rain 62 16.7 59 15 90 90 SW 8 13 29.77 1008 3 5 0.09 2.29
12:30 pm 12:30 Cloudy with Rain 61 16.1 60 15.6 97 97 SSW 7 11 29.77 1008 2 3 0.14 3.56
12:50 pm 12:50 Cloudy with Heavy Rain 61 16 59 15 94 94 SSW 6 9 29.76 1008 2 3 0.24 6.10
12:52 pm 12:52 Cloudy with Rain 61 16.1 59 15 93 93 SSW 7 11 29.76 1008 2 3 0.26 6.60
1:08 pm 13:08 Cloudy with Rain 61 16.1 58 14.4 90 90 SSW 7 11 29.76 1008 5 8 0.06 1.52
1:10 pm 13:10 Cloudy with Rain 61 16.1 59 15 93 93 S 6 9 29.76 1008 4 6 0.06 1.52
1:23 pm 13:23 Cloudy with Rain 61 16.1 59 15 93 93 SSW 3 6 29.76 1008 3 5 0.09 2.29
1:34 pm 13:34 Cloudy with Rain 61 16.1 59 15 93 93 S 5 7 29.75 1007 4 6 0.12 3.05
1:52 pm 13:52 Cloudy with Light Rain 60 15.6 58 14.4 93 93 S 6 9 29.74 1007 4 6 0.15 3.81
2:21 pm 14:21 Cloudy with Light Rain 60 15.6 59 15 96 96 Calm 29.73 1007 5 8 0.05 1.27
2:52 pm 14:52 Cloudy with Rain 60 15.6 59 15 96 96 Calm 29.73 1007 4 6 0.12 3.05
3:11 pm 15:11 Cloudy with Light Rain 60 15.6 58 14.4 93 93 S 3 6 29.72 1006 6 10 0.02 0.51
3:26 pm 15:26 Cloudy with Light Rain 60 15.6 59 15 96 96 S 6 9 29.72 1006 5 8 0.04 1.02
3:52 pm 15:52 Cloudy with Rain 60 15.6 58 14.4 93 93 SE 3 6 29.70 1006 4 6 0.11 2.79
4:52 pm 16:52 Cloudy with Light Rain 60 15.6 57 13.9 90 90 ESE 7 11 29.67 1005 9 14 0.06 1.52
5:52 pm 17:52 Cloudy with Rain 60 15.6 57 13.9 90 90 WSW 7 11 29.67 1005 5 8 0.07 1.78
6:13 pm 18:13 Cloudy 60 15.6 58 14.4 93 93 SSW 7 11 29.69 1005 10 16 0.01 0.25
6:16 pm 18:16 Cloudy 60 15.6 58 14.4 93 93 SSW 7 11 29.69 1005 10 16 0.01 0.25
6:29 pm 18:29 Cloudy 60 15.6 58 14.4 93 93 S 9 15 29.69 1005 10 16 0.01 0.25
6:37 pm 18:37 Cloudy 60 15.6 57 13.9 90 90 S 9 15 29.69 1005 10 16 0.01 0.25
6:52 pm 18:52 Cloudy 59 15 57 13.9 93 93 S 9 15 29.69 1006 8 13 0.01 0.25
7:20 pm 19:20 Cloudy with Mist and Fog 59 15 57 13.9 93 93 S 8 13 29.70 1006 5 8 0.00 0.00
7:27 pm 19:27 Cloudy with Light Rain 58 14.4 58 14.4 100 100 S 8 13 29.70 1006 3 4 0.01 0.25
7:29 pm 19:29 Cloudy with Light Rain 58 14.4 58 14.4 100 100 S 8 13 29.70 1006 3 4 0.01 0.25
7:35 pm 19:35 Cloudy with Light Rain 58 14.4 57 13.9 97 97 S 9 15 29.70 1006 3 5 0.01 0.25
7:43 pm 19:43 Cloudy 58 14.4 57 13.9 97 97 S 9 15 29.70 1006 7 11 0.01 0.25
7:52 pm 19:52 Cloudy 58 14.4 57 13.9 97 97 S 8 13 29.69 1006 8 13 0.01 0.25
8:25 pm 20:25 Cloudy 58 14.4 57 13.9 97 97 S 7 11 29.71 1006 10 16 0.00 0.00
8:33 pm 20:33 Cloudy 58 14.4 57 13.9 97 97 S 8 13 29.71 1006 10 16 0.00 0.00
8:52 pm 20:52 Cloudy 59 15 57 13.9 93 93 S 9 15 29.72 1006 10 16 0.00 0.00
9:23 pm 21:23 Cloudy 58 14.4 57 13.9 97 97 S 8 13 29.73 1007 10 16 0.00 0.00
9:50 pm 21:50 Cloudy 59 15 55 13 88 88 S 8 13 29.74 1007 10 16 0.00 0.00
9:52 pm 21:52 Cloudy 59 15 56 13.3 90 90 S 8 13 29.73 1007 10 16 0.00 0.00
10:13 pm 22:13 Cloudy 58 14.4 57 13.9 97 97 SSE 7 11 29.75 1007 10 16 0.00 0.00
10:28 pm 22:28 Cloudy 58 14.4 56 13.3 93 93 SSE 6 9 29.74 1007 10 16 0.00 0.00
10:52 pm 22:52 Cloudy 58 14.4 56 13.3 93 93 S 8 13 29.73 1007 10 16 0.00 0.00
10:59 pm 22:59 Cloudy 58 14.4 56 13.3 93 93 S 7 11 29.74 1007 10 16 0.00 0.00
11:31 pm 23:31 Cloudy 58 14.4 56 13.3 93 93 Calm 29.72 1006 10 16 0.00 0.00
11:52 pm 23:52 Cloudy 58 14.4 56 13.3 93 93 SSE 3 6 29.73 1007 10 16 0.00 0.00

Powered by AerisWeather